Weather History for Leadville, CO

Change the Weather History Date:

Tuesday, December 3, 2013

  Actual Average Record
Temperature  
Mean Temperature 26 °F -  
Max Temperature 29 °F 30 °F 48 °F (1998)
Min Temperature 22 °F 6 °F -12 °F (1990)
Degree Days  
Heating Degree Days 39 47  
Month to date heating degree days 119 140  
Since 1 July heating degree days 3346 3545  
Cooling Degree Days 0 0  
Month to date cooling degree days 0 0  
Year to date cooling degree days 0 0  
Moisture  
Dew Point 21 °F    
Average Humidity 73    
Maximum Humidity 96    
Minimum Humidity 50    
Precipitation  
Precipitation 0.23 in 0.03 in 0.40 in (1977)
Month to date precipitation 0.23 0.08  
Year to date precipitation 17.17 11.78  
Sea Level Pressure  
Sea Level Pressure 29.49 in    
Wind  
Wind Speed 7 mph (South)    
Max Wind Speed 15 mph    
Max Gust Speed 22 mph    
Visibility 3 miles    
Events Fog , Snow    
T = Trace of Precipitation, MM = Missing Value Source: NWS Daily Summary

Daily Weather History Graph

Daily Weather History Graph

Search for Another Location

Airport:

Trip Planner

Search our weather history database for the weather conditions in past years. The results will help you decide how hot, cold, wet, or windy it might be!

Date:

Astronomy

Dec. 03, 2013 Rise Set
Actual Time 7:07 AM MST 4:42 PM MST
Civil Twilight 6:38 AM MST 5:12 PM MST
Nautical Twilight 6:04 AM MST 5:45 PM MST
Astronomical Twilight 5:32 AM MST 6:17 PM MST
Moon 7:40 AM MST (12/3) 5:48 PM MST (12/3)
Length of Visible Light 10h 33m
Length of Day
9h 34m
New Moon, 1% of the Moon is Illuminated
Dec 3
New Moon
Dec 9
First Quarter
Dec 17
Full
Dec 25
Last Quarter
Jan 1
New

Hourly Weather History & Observations

Time (MST) Temp. Windchill Dew Point Humidity Pressure Visibility Wind Dir Wind Speed Gust Speed Precip Events Conditions
12:53 AM 28.0 °F 18.1 °F 12.9 °F 53% 29.54 in 10.0 mi NW 11.5 mph 18.4 mph N/A   Overcast
1:53 AM 28.9 °F 21.1 °F 12.9 °F 51% 29.52 in 10.0 mi North 8.1 mph - N/A   Overcast
2:53 AM 28.0 °F 21.7 °F 12.9 °F 53% 29.51 in 10.0 mi NNW 5.8 mph - N/A   Overcast
3:53 AM 28.0 °F 21.7 °F 12.0 °F 51% 29.48 in 10.0 mi Variable 5.8 mph - N/A   Overcast
4:53 AM 26.1 °F - 15.1 °F 63% 29.49 in 10.0 mi Calm Calm - N/A   Overcast
5:53 AM 27.0 °F 20.5 °F 14.0 °F 58% 29.45 in 10.0 mi NE 5.8 mph - N/A   Overcast
6:53 AM 28.0 °F 18.6 °F 14.0 °F 56% 29.44 in 10.0 mi SSE 10.4 mph - N/A   Overcast
7:53 AM 26.1 °F 16.8 °F 18.0 °F 71% 29.50 in 3.0 mi South 9.2 mph - 0.00 in Snow Light Snow
8:01 AM 26.1 °F 18.4 °F 19.0 °F 75% 29.65 in 2.5 mi South 6.9 mph - 0.00 in Snow Light Snow
8:12 AM 25.0 °F 16.3 °F 19.9 °F 81% 29.64 in 1.2 mi South 8.1 mph - 0.00 in Snow Light Snow
8:22 AM 25.0 °F 20.7 °F 21.0 °F 85% 29.65 in 0.8 mi SSE 3.5 mph - 0.00 in Snow Light Snow
8:30 AM 26.1 °F 21.9 °F 21.0 °F 81% 29.65 in 2.0 mi ESE 3.5 mph - 0.00 in Snow Light Snow
8:45 AM 26.1 °F 21.9 °F 19.9 °F 78% 29.64 in 1.8 mi Variable 3.5 mph - 0.01 in Snow Light Snow
8:53 AM 26.1 °F 21.9 °F 19.9 °F 78% 29.49 in 1.5 mi Variable 3.5 mph - 0.01 in Snow Light Snow
9:26 AM 26.1 °F - 19.9 °F 78% 29.63 in 3.0 mi Calm Calm - 0.00 in Snow Light Snow
9:53 AM 27.0 °F 21.6 °F 19.0 °F 72% 29.49 in 2.0 mi SSE 4.6 mph - 0.00 in Snow Light Snow
9:59 AM 26.1 °F 18.4 °F 19.9 °F 78% 29.64 in 0.8 mi South 6.9 mph - 0.00 in Snow Light Snow
10:15 AM 25.0 °F 18.1 °F 21.9 °F 88% 29.64 in 0.5 mi South 5.8 mph - 0.01 in Fog , Snow Snow
10:26 AM 25.0 °F 19.3 °F 21.9 °F 88% 29.64 in 0.2 mi SSE 4.6 mph - 0.02 in Fog , Snow Snow
10:40 AM 25.0 °F 17.1 °F 21.9 °F 88% 29.63 in 0.5 mi SSE 6.9 mph - 0.03 in Fog , Snow Snow
10:53 AM 25.0 °F 16.3 °F 21.9 °F 88% 29.48 in 0.8 mi South 8.1 mph - 0.04 in Snow Light Snow
10:57 AM 25.0 °F 15.5 °F 21.9 °F 88% 29.61 in 1.0 mi SSE 9.2 mph - 0.00 in Snow Light Snow
11:10 AM 25.0 °F 16.3 °F 21.9 °F 88% 29.61 in 0.5 mi SSE 8.1 mph - 0.00 in Fog , Snow Snow
11:20 AM 25.0 °F 17.1 °F 21.9 °F 88% 29.60 in 0.5 mi South 6.9 mph - 0.01 in Fog , Snow Snow
11:53 AM 24.1 °F 14.4 °F 21.9 °F 91% 29.45 in 0.5 mi South 9.2 mph - 0.04 in Fog , Snow Snow
12:36 PM 24.1 °F 16.0 °F 23.0 °F 96% 29.57 in 0.8 mi South 6.9 mph - 0.03 in Snow Light Snow
12:53 PM 23.0 °F 13.1 °F 21.0 °F 92% 29.40 in 0.8 mi South 9.2 mph - 0.04 in Snow Light Snow
1:30 PM 24.1 °F 18.2 °F 21.9 °F 91% 29.54 in 0.8 mi SSW 4.6 mph - 0.02 in Snow Light Snow
1:42 PM 24.1 °F 16.0 °F 21.9 °F 91% 29.54 in 1.0 mi SSW 6.9 mph - 0.02 in Snow Light Snow
1:53 PM 23.0 °F 13.9 °F 21.9 °F 96% 29.38 in 1.0 mi South 8.1 mph - 0.02 in Snow Light Snow
2:09 PM 23.0 °F 13.1 °F 21.9 °F 96% 29.54 in 1.2 mi SSW 9.2 mph - 0.00 in Snow Light Snow
2:23 PM 23.0 °F 13.9 °F 21.9 °F 96% 29.53 in 1.5 mi South 8.1 mph - 0.01 in Snow Light Snow
2:44 PM 23.0 °F 17.0 °F 21.9 °F 96% 29.53 in 2.0 mi SW 4.6 mph - 0.01 in Snow Light Snow
2:53 PM 23.0 °F 18.4 °F 21.9 °F 96% 29.37 in 3.0 mi SSW 3.5 mph - 0.01 in Snow Light Snow
3:03 PM 23.0 °F 17.0 °F 21.9 °F 96% 29.53 in 2.5 mi West 4.6 mph - 0.00 in   Overcast
3:16 PM 23.0 °F 15.8 °F 21.9 °F 96% 29.53 in 1.2 mi SSW 5.8 mph - 0.00 in   Overcast
3:25 PM 23.0 °F 17.0 °F 21.9 °F 96% 29.53 in 0.5 mi South 4.6 mph - 0.00 in Fog , Snow Light Snow
3:53 PM 23.0 °F 17.0 °F 21.9 °F 96% 29.37 in 1.2 mi North 4.6 mph - 0.00 in   Overcast
3:55 PM 23.0 °F 17.0 °F 21.9 °F 96% 29.53 in 2.0 mi North 4.6 mph - N/A   Overcast
3:59 PM 23.0 °F 17.0 °F 21.9 °F 96% 29.53 in 4.0 mi NNE 4.6 mph - N/A   Overcast
4:07 PM 23.0 °F 17.0 °F 21.9 °F 96% 29.52 in 5.0 mi East 4.6 mph - 0.00 in Snow Light Snow
4:18 PM 24.1 °F 16.0 °F 21.9 °F 91% 29.52 in 4.0 mi ESE 6.9 mph - 0.00 in Snow Light Snow
4:27 PM 23.0 °F - 21.0 °F 92% 29.52 in 2.0 mi Calm Calm - 0.00 in Snow Light Snow
4:50 PM 24.8 °F 17.9 °F 21.2 °F 86% 29.51 in 5.0 mi SE 5.8 mph - 0.00 in Snow Light Snow
4:53 PM 26.1 °F 16.8 °F 21.9 °F 84% 29.35 in 6.0 mi SE 9.2 mph - 0.00 in Snow Light Snow
5:41 PM 26.1 °F 17.6 °F 21.0 °F 81% 29.50 in 4.0 mi SE 8.1 mph - 0.00 in Snow Light Snow
5:53 PM 25.0 °F 15.5 °F 19.9 °F 81% 29.34 in 9.0 mi South 9.2 mph - 0.00 in   Overcast
6:46 PM 21.9 °F 17.2 °F 21.9 °F 100% 29.51 in 10.0 mi West 3.5 mph - N/A   Overcast
6:53 PM 23.0 °F - 21.9 °F 96% 29.35 in 9.0 mi Calm Calm - N/A   Overcast
7:08 PM 23.0 °F 18.4 °F 21.9 °F 96% 29.51 in 6.0 mi West 3.5 mph - 0.00 in Snow Light Snow
7:32 PM 23.0 °F - 21.0 °F 92% 29.49 in 8.0 mi Calm Calm - 0.00 in Snow Light Snow
7:53 PM 23.0 °F 18.4 °F 21.0 °F 92% 29.34 in 6.0 mi South 3.5 mph - 0.00 in   Overcast
7:58 PM 23.0 °F 15.8 °F 21.9 °F 96% 29.48 in 1.5 mi South 5.8 mph - N/A   Overcast
8:05 PM 23.0 °F 15.8 °F 21.9 °F 96% 29.48 in 0.8 mi South 5.8 mph - N/A   Overcast
8:12 PM 23.0 °F 17.0 °F 21.9 °F 96% 29.47 in 0.8 mi SSE 4.6 mph - 0.00 in Snow Light Snow
8:21 PM 23.0 °F 18.4 °F 21.9 °F 96% 29.47 in 2.0 mi SSE 3.5 mph - 0.00 in Snow Light Snow
8:29 PM 21.9 °F 17.2 °F 21.9 °F 100% 29.46 in 5.0 mi South 3.5 mph - 0.00 in Snow Light Snow
8:34 PM 23.0 °F - 21.9 °F 96% 29.46 in 5.0 mi Calm Calm - 0.00 in Snow Light Snow
8:44 PM 21.9 °F - 21.0 °F 96% 29.46 in 7.0 mi Calm Calm - 0.00 in   Overcast
8:53 PM 23.0 °F - 21.0 °F 92% 29.30 in 7.0 mi Calm Calm - 0.00 in   Overcast
9:10 PM 21.9 °F - 21.0 °F 96% 29.44 in 4.0 mi Calm Calm - 0.00 in Snow Light Snow
9:22 PM 23.0 °F - 21.0 °F 92% 29.44 in 2.0 mi Calm Calm - 0.00 in Snow Light Snow
9:33 PM 24.1 °F 16.0 °F 21.9 °F 91% 29.44 in 1.8 mi South 6.9 mph - 0.00 in Snow Light Snow
9:53 PM 24.1 °F 12.0 °F 21.9 °F 91% 29.27 in 1.0 mi SSE 13.8 mph - 0.01 in Snow Light Snow
9:55 PM 24.1 °F 12.0 °F 21.9 °F 91% 29.43 in 0.8 mi SSE 13.8 mph - 0.00 in Snow Light Snow
10:12 PM 24.1 °F 13.7 °F 21.9 °F 91% 29.43 in 1.0 mi SSE 10.4 mph 21.9 mph 0.01 in Snow Light Snow
10:53 PM 24.1 °F 15.2 °F 21.9 °F 91% 29.27 in 1.2 mi SSE 8.1 mph - 0.03 in Snow Light Snow
11:53 PM 25.0 °F 14.2 °F 21.9 °F 88% 29.24 in 1.0 mi SSE 11.5 mph - 0.03 in Snow Light Snow